Location: Shannon
(40.5500°S, 175.4167°E)
Time: 19:59:24
(UTC+00:00)

CZ-4C R/B - Pass Details

Date: 17 November 2025
Orbit: 487 x 1493 km, 63.4° (Epoch: 14 December)

Event Time Altitude Azimuth Distance (km) Brightness Sun altitude
Exits shadow 15:29:31 16° 323° (NW) 3,118 4.5 -13.5°
Maximum altitude 15:37:05 82° 236° (SW) 1,351 3.2 -12.4°
Drops below altitude 10° 15:44:41 10° 147° (SSE) 3,044 6.4 -11.3°
Sets 15:47:08 0° 146° (SE) 3,873 7.2 -10.9°
